Content
SEND FEEDBACK

Daily
Averages
Monthly
Summary
Mexico

COZUMEL, QUINTANA ROO


Home > North America > Mexico > Quintana Roo
Elevation: 15 feet     Latitude: 20 31N     Longitude: 086 56W

WEATHER
 
SELECT A DAY
Number of Records: 128,103;   Date Range: 1/1/95 - 11/27/14
 
SHARE

PRINT THIS DATA

[ ← Previous Day ]
WEATHER ALMANAC - JULY 13, 2014
[ Next Day → ]
[ °C ]   °F
Weather ElementAverageHighLow
Temperature79.7 °F87.8 °F (12:54 pm)71.6 °F (3:48 am)
Dewpoint74.8 °F77 °F (7:43 am)71.6 °F (3:48 am)
Humidity86 %100 % (12:44 am)66 % (2:50 pm)
Barometer30.03 in30.09 in (9:45 am)30.00 in (2:42 am)
Wind Speed5.3 mph15 mph (12:46 pm)
Weather ElementAverage
Visibility7.6 mi
Wind DirectionENE (62.5 °)

Weather ElementTotal
Precipitation---
Cooling Degree Days14.7 (Base 65)
Growing Degree Days29.7 (Base 50)
Averaged from 24 records on July 13, 2014
WEATHER CONDITIONS BREAKOUT
WIND DIRECTION BREAKOUT
WEATHER BY HOUR - JULY 13, 2014
[ °C ]   °F
Local TimeTemperatureDewpointHumidityBarometerVisibilityWind DirectionWind SpeedGust SpeedPrecipitationEventsConditions
12:41 AM75.2 °F73.4 °F94 %30.02 in7.0 miCalmScattered Clouds
1:40 AM75.2 °F75.2 °F100 %30.03 in7.0 miCalmScattered Clouds
2:40 AM75.2 °F75.2 °F100 %30.01 in7.0 miCalmScattered Clouds
3:40 AM73.4 °F73.4 °F100 %30.02 in7.0 miCalmPartly Cloudy
4:40 AM73.4 °F73.4 °F100 %30.00 in7.0 miCalmPartly Cloudy
5:48 AM71.6 °F71.6 °F100 %30.00 in7.0 miCalmScattered Clouds
6:42 AM71.6 °F71.6 °F100 %30.00 in7.0 miCalmMostly Cloudy
7:49 AM77.0 °F75.2 °F94 %30.03 in8.0 miEast (100°)3.5 mphScattered Clouds
8:48 AM82.4 °F77.0 °F84 %30.05 in8.0 miEast (100°)6.9 mphScattered Clouds
9:49 AM84.2 °F75.2 °F74 %30.08 in8.0 miEast (80°)8.1 mphScattered Clouds
10:43 AM84.2 °F75.2 °F74 %30.06 in8.0 miEast (100°)11.5 mphScattered Clouds
11:47 AM84.2 °F75.2 °F74 %30.06 in8.0 miENE (60°)9.2 mphScattered Clouds
12:47 PM87.8 °F75.2 °F66 %30.03 in8.0 miEast (80°)11.5 mphScattered Clouds
1:43 PM86.0 °F77.0 °F74 %30.03 in8.0 miENE (70°)15.0 mphScattered Clouds
2:47 PM87.8 °F75.2 °F66 %30.02 in8.0 miEast (80°)9.2 mphMostly Cloudy
3:44 PM86.0 °F75.2 °F70 %30.05 in8.0 miEast (100°)11.5 mphMostly Cloudy
4:44 PM86.0 °F73.4 °F66 %30.02 in8.0 miESE (120°)11.5 mphMostly Cloudy
5:50 PM82.4 °F75.2 °F79 %30.01 in8.0 miEast (100°)6.9 mphMostly Cloudy
6:54 PM80.6 °F77.0 °F89 %30.00 in8.0 miNE (40°)4.6 mphMostly Cloudy
7:44 PM78.8 °F75.2 °F89 %30.03 in8.0 miEast (80°)3.5 mphMostly Cloudy
8:46 PM78.8 °F75.2 °F89 %30.05 in8.0 miEast (100°)3.5 mphMostly Cloudy
9:42 PM77.0 °F75.2 °F94 %30.09 in7.0 miEast (100°)3.5 mphMostly Cloudy
10:40 PM77.0 °F75.2 °F94 %30.07 in7.0 miEast (100°)3.5 mphMostly Cloudy
11:45 PM77.0 °F75.2 °F94 %30.07 in7.0 miEast (90°)4.6 mphMostly Cloudy
Hourly data recorded from MMCZ, located miles away from Cozumel, Quintana Roo







STORIES FROM OUR PARTNERS